When you browse on this site, cookies collect data to enhance your experience and personalize the content and advertising you see.
Visit our Privacy Policy to learn more. By continuing to use the site, you agree to this use of cookies and data.
EN

Hourly Weather Mohacs

Today, 9 July, Thursday

Time Temperature Precipitation Wind Pressure Humidity
00:00 +16°C° 0 mm 1 mps 756 mmHg 63%
01:00 +16°C° 0 mm 1 mps 756 mmHg 63%
02:00 +16°C° 0 mm 1 mps 756 mmHg 65%
03:00 +16°C° 0 mm 1 mps 756 mmHg 66%
04:00 +15°C° 0 mm 1 mps 756 mmHg 67%
05:00 +18°C° 0 mm 1 mps 756 mmHg 65%
06:00 +20°C° 0 mm 1 mps 756 mmHg 63%
07:00 +22°C° 0 mm 1 mps 756 mmHg 61%
08:00 +23°C° 0 mm 1 mps 756 mmHg 57%
09:00 +25°C° 0 mm 2 mps 757 mmHg 53%
10:00 +27°C° 0 mm 2 mps 757 mmHg 49%
11:00 +28°C° 0 mm 2 mps 756 mmHg 47%
12:00 +29°C° 0 mm 2 mps 756 mmHg 45%
13:00 +30°C° 0 mm 2 mps 756 mmHg 43%
14:00 +30°C° 0 mm 2 mps 756 mmHg 44%
15:00 +30°C° 0 mm 2 mps 755 mmHg 45%
16:00 +30°C° 0 mm 3 mps 755 mmHg 46%
17:00 +28°C° 0 mm 2 mps 755 mmHg 53%
18:00 +27°C° 0 mm 2 mps 754 mmHg 61%
19:00 +25°C° 0 mm 2 mps 754 mmHg 68%
20:00 +24°C° 0 mm 2 mps 754 mmHg 71%
21:00 +21°C° 0 mm 2 mps 754 mmHg 74%
22:00 +20°C° 0 mm 2 mps 755 mmHg 77%
23:00 +20°C° 0 mm 2 mps 754 mmHg 78%

Tomorrow, 10 July, Friday

Time Temperature Precipitation Wind Pressure Humidity
00:00 +19°C° 0 mm 2 mps 754 mmHg 79%
01:00 +19°C° 0 mm 2 mps 754 mmHg 80%
02:00 +18°C° 0 mm 2 mps 754 mmHg 81%
03:00 +18°C° 0 mm 2 mps 754 mmHg 83%
04:00 +17°C° 0 mm 2 mps 754 mmHg 84%
05:00 +19°C° 0 mm 2 mps 754 mmHg 80%
06:00 +21°C° 0 mm 2 mps 754 mmHg 75%
07:00 +24°C° 0 mm 3 mps 754 mmHg 70%
08:00 +26°C° 0 mm 3 mps 754 mmHg 64%
09:00 +28°C° 0 mm 3 mps 754 mmHg 57%
10:00 +30°C° 0 mm 4 mps 754 mmHg 51%
11:00 +30°C° 0 mm 4 mps 754 mmHg 49%
12:00 +32°C° 0 mm 4 mps 753 mmHg 47%
13:00 +33°C° 0 mm 4 mps 753 mmHg 45%
14:00 +33°C° 0 mm 4 mps 753 mmHg 46%
15:00 +33°C° 0 mm 4 mps 752 mmHg 47%
16:00 +33°C° 0 mm 4 mps 752 mmHg 48%
17:00 +30°C° 0 mm 4 mps 752 mmHg 55%
18:00 +28°C° 0 mm 3 mps 751 mmHg 62%
19:00 +27°C° 0 mm 3 mps 751 mmHg 69%
20:00 +26°C° 0 mm 3 mps 751 mmHg 71%
21:00 +24°C° 0 mm 2 mps 751 mmHg 73%
22:00 +23°C° 0 mm 2 mps 752 mmHg 74%
23:00 +23°C° 0 mm 2 mps 752 mmHg 76%

Day after tomorrow, 11 July, Saturday

Time Temperature Precipitation Wind Pressure Humidity
00:00 +21°C° 0 mm 2 mps 752 mmHg 77%
01:00 +20°C° 0 mm 2 mps 752 mmHg 78%
02:00 +20°C° 0 mm 2 mps 752 mmHg 79%
03:00 +20°C° 0 mm 1 mps 752 mmHg 80%
04:00 +20°C° 0 mm 1 mps 752 mmHg 80%
05:00 +21°C° 0 mm 1 mps 752 mmHg 75%
06:00 +23°C° 0 mm 1 mps 752 mmHg 70%
07:00 +24°C° 0 mm 1 mps 752 mmHg 65%
08:00 +26°C° 0 mm 1 mps 752 mmHg 61%
09:00 +28°C° 0 mm 1 mps 752 mmHg 57%
10:00 +30°C° 0 mm 1 mps 752 mmHg 53%
11:00 +31°C° 0 mm 1 mps 752 mmHg 50%
12:00 +32°C° 0 mm 1 mps 752 mmHg 47%
13:00 +34°C° 0 mm 1 mps 751 mmHg 44%
14:00 +33°C° 0 mm 1 mps 751 mmHg 45%
15:00 +34°C° 0 mm 2 mps 751 mmHg 46%
16:00 +33°C° 0 mm 3 mps 751 mmHg 47%
17:00 +29°C° 0.5 mm 4 mps 752 mmHg 61%
18:00 +26°C° 0.5 mm 6 mps 752 mmHg 74%
19:00 +21°C° 0.5 mm 7 mps 752 mmHg 87%
20:00 +20°C° 0.5 mm 7 mps 753 mmHg 86%
21:00 +17°C° 0.5 mm 6 mps 753 mmHg 85%
22:00 +16°C° 0.5 mm 6 mps 754 mmHg 85%
23:00 +16°C° 0.8 mm 6 mps 754 mmHg 86%

12 July, Sunday

Time Temperature Precipitation Wind Pressure Humidity
00:00 +15°C° 0.8 mm 5 mps 754 mmHg 87%
01:00 +15°C° 0.8 mm 5 mps 755 mmHg 88%
02:00 +15°C° 0.1 mm 5 mps 755 mmHg 88%
03:00 +15°C° 0.1 mm 5 mps 755 mmHg 87%
04:00 +14°C° 0.1 mm 5 mps 755 mmHg 87%
05:00 +14°C° 0.3 mm 5 mps 756 mmHg 88%
06:00 +14°C° 0.3 mm 6 mps 756 mmHg 89%
07:00 +14°C° 0.3 mm 6 mps 756 mmHg 90%
08:00 +15°C° 0.1 mm 6 mps 757 mmHg 84%
09:00 +16°C° 0.1 mm 6 mps 757 mmHg 78%
10:00 +17°C° 0.1 mm 6 mps 758 mmHg 72%
11:00 +19°C° 0 mm 6 mps 758 mmHg 70%
12:00 +20°C° 0 mm 6 mps 758 mmHg 67%
13:00 +21°C° 0 mm 6 mps 758 mmHg 65%
14:00 +21°C° 0.1 mm 5 mps 758 mmHg 64%
15:00 +21°C° 0.1 mm 4 mps 758 mmHg 64%
16:00 +21°C° 0.1 mm 4 mps 758 mmHg 63%
17:00 +20°C° 0.1 mm 3 mps 758 mmHg 68%
18:00 +19°C° 0.1 mm 3 mps 759 mmHg 73%
19:00 +18°C° 0.1 mm 3 mps 759 mmHg 78%
20:00 +16°C° 0 mm 2 mps 759 mmHg 81%
21:00 +15°C° 0 mm 2 mps 759 mmHg 84%
22:00 +14°C° 0 mm 1 mps 760 mmHg 87%
23:00 +13°C° 0 mm 1 mps 760 mmHg 88%

13 July, Monday

Time Temperature Precipitation Wind Pressure Humidity
00:00 +13°C° 0 mm 1 mps 760 mmHg 89%
01:00 +12°C° 0 mm 1 mps 760 mmHg 89%
02:00 +12°C° 0 mm 1 mps 759 mmHg 90%
03:00 +12°C° 0 mm 2 mps 759 mmHg 91%
04:00 +12°C° 0 mm 2 mps 759 mmHg 92%
05:00 +13°C° 0 mm 2 mps 759 mmHg 86%
06:00 +15°C° 0 mm 2 mps 759 mmHg 80%
07:00 +16°C° 0 mm 2 mps 759 mmHg 74%
08:00 +18°C° 0 mm 3 mps 759 mmHg 66%
09:00 +20°C° 0 mm 3 mps 759 mmHg 58%
10:00 +21°C° 0 mm 3 mps 759 mmHg 51%
11:00 +22°C° 0 mm 3 mps 758 mmHg 47%
12:00 +24°C° 0 mm 3 mps 758 mmHg 43%
13:00 +25°C° 0 mm 4 mps 757 mmHg 40%
14:00 +23°C° 0 mm 4 mps 757 mmHg 41%
15:00 +23°C° 0 mm 4 mps 757 mmHg 42%
16:00 +23°C° 0 mm 4 mps 756 mmHg 43%
17:00 +22°C° 0 mm 3 mps 756 mmHg 50%
18:00 +20°C° 0 mm 2 mps 756 mmHg 57%
19:00 +19°C° 0 mm 2 mps 756 mmHg 65%
20:00 +18°C° 0 mm 1 mps 756 mmHg 69%
21:00 +16°C° 0 mm 1 mps 756 mmHg 73%
22:00 +15°C° 0 mm 1 mps 756 mmHg 77%
23:00 +14°C° 0 mm 1 mps 756 mmHg 79%

14 July, Tuesday

Time Temperature Precipitation Wind Pressure Humidity
00:00 +14°C° 0 mm 1 mps 756 mmHg 80%
01:00 +14°C° 0 mm 1 mps 756 mmHg 82%
02:00 +13°C° 0 mm 1 mps 756 mmHg 83%
03:00 +13°C° 0 mm 1 mps 756 mmHg 85%
04:00 +13°C° 0 mm 1 mps 755 mmHg 86%
05:00 +14°C° 0 mm 1 mps 756 mmHg 80%
06:00 +16°C° 0 mm 1 mps 756 mmHg 73%
07:00 +19°C° 0 mm 1 mps 756 mmHg 67%
08:00 +21°C° 0 mm 1 mps 756 mmHg 61%
09:00 +23°C° 0 mm 1 mps 756 mmHg 55%
10:00 +24°C° 0 mm 1 mps 755 mmHg 50%
11:00 +25°C° 0 mm 1 mps 755 mmHg 47%
12:00 +26°C° 0 mm 2 mps 755 mmHg 45%
13:00 +26°C° 0 mm 2 mps 754 mmHg 42%
14:00 +26°C° 0 mm 2 mps 754 mmHg 44%
15:00 +26°C° 0 mm 2 mps 754 mmHg 45%
16:00 +26°C° 0 mm 2 mps 754 mmHg 47%
17:00 +24°C° 0 mm 2 mps 754 mmHg 52%
18:00 +23°C° 0 mm 1 mps 754 mmHg 57%
19:00 +21°C° 0 mm 1 mps 754 mmHg 62%
20:00 +20°C° 0 mm 1 mps 754 mmHg 64%
21:00 +19°C° 0 mm 1 mps 754 mmHg 66%
22:00 +16°C° 0 mm 0 mps 755 mmHg 68%
23:00 +15°C° 0 mm 0 mps 755 mmHg 71%
Show more